Aérodrome :
LOGIN :

S'inscrire | Disclaimer

   EN    FR    IT 

 










Légende :    VFR   VFR Marginal   IFR   IFR Intensif   IFR Très Intensif
Visi : 
Plafond : 
>= 8 km
>= 3000ft
5 à 8 km
1000 à 3000 ft
1500m à 5 km
500 à 1000 ft
800 à 1500m
200 à 500 ft
< 800m
< 200 ft
Symboles :   Orages  Brouillard  Fortes neiges  Fortes précipitations  Vent > 20 kt
SIGMETs :   Divers  Orages  Givrage  Turbulence  Onde Orograph.  Cendres Volcan.







- Altitude de l'aérodrome : 1325 ft
- Code IATA : EBU
- Voir les cartes d'approche


LFMH - St-Etienne Boutheon

DERNIER METAR :
  • 240430Z AUTO VRB01KT CAVOK 00/M01 Q1025 TEMPO 3500 BR

METARs EXPIRÉS :
  • 240400Z AUTO 02002KT CAVOK 01/M00 Q1025 TEMPO 3500 BR
  • 240330Z AUTO VRB02KT CAVOK 01/M01 Q1025 TEMPO 3500 BR
  • 240300Z AUTO 00000KT CAVOK 01/M01 Q1025 TEMPO 3500 BR
  • 240230Z AUTO 14002KT CAVOK 02/01 Q1025 TEMPO 3500 BR
  • 240200Z AUTO VRB01KT CAVOK 01/M00 Q1025

TAF TAF LFMH
Valide du 24 à 03h jusqu'au 25 à 03h UTC


240200Z 2403/2503 VRB02KT CAVOK
PROB30
TEMPO 2404/2407 3500 BR NSC
BECMG 2414/2417 34010KT BKN040
ATIS : +33 4 77 36 17 51
Pas de NOTAMs connus pour ce terrain.



MET'MAP, la Météo Aéronautique d'un coup d'oeil ! - Copyright ORBIFLY Décembre 2007 - Disclaimer

ORBIFLY MET'MAP TEAM :

Programmation & Développement : Alexandra Zaïnal
Conception & Développement : Baudouin d'Aumeries
Co-Programmation & Développement : Marc-Olivier Méhu
Soutien technique & logistique : Manuel Goepfert

Contact : metmap@orbifly.com




SOURCES & CREDITS :

   NOAA